Temperature
24 24 23 23 22 22 21 21 21 20 20 20 20 19 19 19 19 19 19 19 19 18 18 18 18 18 18 18 18 18 18 18 18 18 18 18 18 18 18 18 18 18 18
23 23 23 23 22 22 22 21 21 21 20 20 20 20 19 19 19 19 19 18 18 18 18 18 18 18 18 18 18 18 18 18 18 18 18 18 18 18 18 18 18 18 18
23 23 23 23 22 22 22 21 21 21 20 20 19 19 19 19 18 18 18 18 18 18 18 18 18 18 18 18 18 18 18 18 18 18 18 18 18 18 18 18 18 18 18
23 23 23 23 22 22 22 21 21 20 20 20 19 19 19 19 19 19 19 19 18 18 18 18 18 18 18 18 18 18 18 18 18 18 18 18 18 18 18 18 18 18 18
23 23 23 23 23 22 22 21 21 20 20 19 19 19 19 19 19 19 19 18 18 18 18 18 18 18 18 18 18 18 18 18 18 18 18 18 18 18 18 18 18 18 18
24 24 23 23 22 22 21 21 20 20 20 19 19 19 19 19 18 18 18 18 18 18 18 18 18 18 18 18 18 18 18 18 18 18 18 18 18 18 18 18 18 18 18
23 23 23 23 22 21 21 21 20 20 19 19 19 19 18 18 18 18 18 18 18 18 18 18 18 18 18 18 18 18 18 18 18 18 18 18 18 18 18 18 18 18 18
23 23 23 23 22 22 21 21 20 20 19 19 19 18 18 18 18 18 18 18 18 18 18 18 18 18 18 18 18 18 18 18 18 17 17 18 18 18 18 18 18 18 18
23 22 22 22 22 21 21 21 20 20 19 19 19 18 18 18 18 18 18 18 18 18 18 18 18 18 18 18 17 17 17 17 17 17 17 17 18 18 17 17 17 17 17
22 22 22 22 22 21 21 20 20 20 19 19 19 18 18 18 18 18 18 18 18 18 18 18 17 17 17 17 17 17 17 17 17 17 17 17 17 17 17 17 17 17 17
22 22 22 22 21 21 20 20 20 19 19 19 19 18 18 18 18 18 18 18 18 17 17 17 17 17 17 17 17 17 17 17 17 17 17 17 17 17 17 17 17 17 17
22 22 22 21 21 21 20 20 19 19 19 19 18 18 18 18 18 18 18 18 17 17 17 17 17 17 17 16 16 16 17 17 17 17 17 17 17 17 17 16 17 17 17
21 21 21 21 20 20 20 19 19 19 19 18 18 18 18 18 17 17 17 17 17 17 17 17 17 17 16 16 16 16 16 16 16 16 16 16 16 16 16 16 16 16 16
21 21 20 20 20 20 19 19 19 19 18 18 18 18 18 17 17 17 17 17 17 17 17 17 17 16 16 16 16 16 16 16 16 16 16 16 16 16 16 16 16 16 16
20 20 20 20 19 19 19 19 19 18 18 18 18 18 17 17 17 17 17 17 17 17 16 16 16 16 16 16 16 16 16 16 16 15 15 15 15 15 15 15 15 15 15
20 20 20 20 19 19 19 19 18 18 18 18 18 17 17 17 17 17 17 17 16 16 16 16 16 16 16 16 16 16 15 15 15 15 15 15 15 15 15 15 15 14 14
19 19 19 19 19 19 19 18 18 18 18 18 17 17 17 17 17 17 16 16 16 16 16 16 16 15 15 15 15 15 15 15 15 15 15 15 14 14 14 14 14 14 14
19 19 19 19 18 18 18 18 18 18 17 17 17 17 17 17 16 16 16 16 16 16 16 15 15 15 15 15 15 14 14 14 14 14 14 14 14 14 14 14 13 13 13
19 19 19 18 18 18 18 18 18 17 17 17 17 17 17 16 16 16 16 15 15 15 15 15 15 14 14 14 14 14 14 14 14 13 13 13 13 13 13 13 13 13 12
18 18 18 18 18 18 17 17 17 17 17 17 16 16 16 16 16 15 15 15 15 15 14 14 14 14 13 13 13 13 13 13 13 13 13 13 13 12 12 12 12 12 12
18 18 18 17 17 17 17 17 17 16 16 16 16 16 16 15 15 15 15 14 14 14 14 13 13 13 13 13 13 13 13 13 13 12 12 12 12 12 12 12 11 11 11
17 17 17 17 16 17 17 16 16 16 16 15 15 15 15 15 14 14 14 14 14 14 13 13 13 12 12 12 12 12 12 12 12 12 11 11 11 11 11 11 10 10 10
16 16 16 16 16 16 16 16 15 15 15 15 15 15 14 14 14 14 13 13 13 13 13 12 12 12 11 11 11 12 11 11 11 11 10 10 10 10 10 10 10 10 10
16 16 16 15 15 15 15 15 15 15 15 14 14 14 14 13 13 13 13 13 12 12 12 12 12 11 11 11 11 11 11 11 10 10 10 10 9 9 9 9 9 9 9
15 15 15 15 14 14 14 14 14 14 14 14 13 13 13 13 13 12 12 12 12 12 12 12 11 11 11 10 10 10 10 10 10 10 9 9 9 9 8 8 8 8 8
14 14 14 14 14 14 14 13 13 13 14 13 13 13 13 12 12 12 12 11 11 11 11 11 11 10 10 10 10 10 9 9 9 9 9 9 8 8 8 8 7 7 7
Wind_Speed
12 12 13 13 12 12 13 13 12 11 9 6 6 5 5 5 5 5 9 11 11 11 9 6 5 5 5 6 6 4 3 2 2 2 1 3 2 3 5 6 7 9 14
10 12 11 12 13 14 13 12 12 12 10 8 6 4 4 4 5 4 7 11 12 11 10 7 6 6 5 5 5 4 3 3 3 3 2 1 3 3 4 4 6 7 9
16 15 15 14 13 13 14 13 12 11 10 8 5 4 3 2 3 4 5 8 12 12 10 9 7 7 7 6 6 6 6 4 3 3 4 3 4 3 3 3 5 5 6
11 13 14 14 14 13 12 11 11 11 9 9 8 8 6 6 6 6 6 7 10 10 11 9 8 7 6 7 7 6 5 5 3 2 3 3 4 3 2 3 3 4 6
11 12 13 13 12 11 11 10 10 10 9 9 10 9 7 6 4 4 6 7 7 8 10 10 8 7 7 7 7 6 6 5 5 4 3 2 1 2 3 3 3 3 4
9 8 8 9 9 9 10 10 10 8 8 9 9 9 9 7 6 6 7 6 5 6 8 9 8 8 7 7 7 7 7 6 6 4 4 4 3 3 3 3 3 3 4
9 8 9 9 9 10 10 10 10 8 8 8 8 9 9 9 9 7 7 7 6 6 8 8 7 7 7 7 7 7 7 7 6 6 5 4 4 3 4 4 3 3 3
8 9 10 10 10 10 10 10 10 8 8 8 8 7 7 7 6 7 6 7 6 7 7 7 8 8 7 8 6 6 6 6 6 7 6 4 4 4 4 4 3 1 2
8 8 8 8 8 9 9 9 9 7 7 7 6 5 6 6 6 6 6 5 5 6 7 7 7 7 8 7 7 5 6 6 6 6 6 5 4 3 3 3 4 4 3
8 8 8 8 7 7 7 7 7 7 6 6 6 5 4 5 5 5 5 5 5 5 6 7 6 6 7 7 6 5 5 5 5 4 5 4 3 2 2 2 3 4 4
10 8 7 6 6 6 6 7 6 6 5 6 5 4 4 4 3 3 4 4 4 4 5 5 6 6 6 6 6 6 5 5 5 4 5 4 3 2 2 2 2 3 3
9 8 7 6 6 6 6 7 6 6 6 6 5 4 3 3 3 2 3 3 3 2 3 4 5 5 5 5 6 6 5 6 5 5 4 3 3 2 2 2 2 2 3
8 7 6 6 5 5 5 5 6 5 5 5 5 4 3 3 2 2 2 2 2 2 2 2 4 4 4 5 5 5 5 5 5 5 5 4 4 3 2 2 2 2 2
9 7 6 5 4 4 4 5 5 5 5 5 4 4 3 3 2 2 2 2 2 3 2 2 2 3 3 4 4 4 4 4 4 3 4 4 4 4 3 2 2 1 1
8 8 6 5 4 3 2 3 4 4 5 5 4 4 3 3 3 3 3 3 3 3 3 3 3 3 2 2 4 4 4 4 3 2 2 2 3 3 3 2 2 1 1
8 8 6 5 4 4 3 3 3 4 5 5 4 4 4 4 4 3 4 4 5 5 5 5 4 4 3 5 6 5 4 4 4 3 2 3 4 5 5 5 4 3 2
7 7 6 4 4 4 4 4 4 4 5 5 5 5 5 5 4 5 5 6 5 6 6 5 6 5 5 7 8 7 5 4 4 4 4 3 4 4 4 6 7 7 5
7 6 5 4 4 4 4 4 4 5 5 5 4 5 6 6 5 6 6 6 6 6 6 6 6 6 6 8 8 8 6 6 5 4 4 4 4 4 4 5 6 5 5
4 5 5 5 5 5 5 6 5 5 5 5 5 5 6 7 7 7 7 6 7 7 7 7 7 7 7 8 8 7 6 6 6 6 6 6 6 7 8 7 7 6 6
5 5 6 7 6 5 6 7 6 6 5 5 6 6 6 7 8 7 7 6 7 7 7 8 8 8 8 10 9 7 6 7 6 6 7 9 8 9 9 7 7 7 4
8 7 8 7 5 5 7 8 7 6 5 6 8 8 7 8 8 8 7 8 8 9 9 9 9 9 9 10 12 9 6 6 6 6 6 6 11 12 12 10 7 6 5
9 9 8 7 6 6 8 9 7 6 6 8 9 9 8 7 8 8 8 8 8 9 8 9 9 8 8 9 10 12 11 8 8 6 5 7 12 13 12 10 10 11 9
10 9 9 9 8 7 8 9 6 6 8 10 10 9 10 9 8 8 8 7 7 7 6 7 7 6 6 8 13 14 13 12 8 7 9 11 12 11 10 12 12 10 7
9 9 10 10 8 7 7 7 6 8 10 11 10 9 10 10 10 8 7 7 6 6 6 6 6 6 6 6 6 6 7 10 9 7 9 12 13 11 10 9 8 7 6
8 8 9 9 8 6 7 6 6 9 11 11 10 10 9 10 10 10 8 7 5 4 6 6 5 6 6 4 6 6 5 5 5 6 6 7 7 7 7 7 7 6 6
9 9 9 9 8 7 7 6 6 8 11 10 9 8 8 8 8 10 10 15 12 14 14 11 9 7 8 9 11 12 12 11 10 9 7 7 6 6 5 5 5 6 6
Wind_Direction
189 176 172 173 171 171 172 174 172 173 167 167 169 170 179 182 178 185 185 186 190 187 182 182 177 172 177 185 178 165 172 193 157 103 358 327 287 228 216 205 198 204 208
181 175 169 175 177 177 178 177 177 176 177 179 177 172 167 181 185 188 192 193 196 192 192 182 183 181 179 184 184 168 167 195 163 141 122 332 330 302 241 214 205 207 205
182 179 176 181 183 182 180 180 180 180 179 171 160 152 143 148 172 190 198 200 199 197 194 186 185 187 184 192 193 179 170 186 202 171 153 162 223 273 296 242 218 203 201
184 182 179 181 185 184 178 176 178 178 177 171 174 176 185 194 200 195 197 202 202 199 196 193 191 191 191 193 199 189 177 169 193 214 205 185 166 170 276 304 260 223 212
183 183 180 180 181 176 172 172 173 179 181 182 183 185 197 202 197 192 194 201 204 201 197 196 193 194 194 198 198 186 184 182 184 190 192 194 179 164 169 255 287 279 241
180 174 172 166 167 168 169 171 172 182 184 187 189 192 196 195 194 200 202 204 209 210 204 200 198 198 197 201 201 194 190 193 190 189 187 178 179 194 182 207 243 257 263
167 161 163 163 162 166 170 173 175 184 187 188 195 198 200 197 200 203 203 202 206 211 213 209 202 202 204 202 196 196 199 196 194 198 203 201 204 185 176 182 215 245 274
162 165 164 160 162 168 170 172 177 183 186 191 199 201 200 199 201 201 201 203 205 210 208 207 203 202 204 207 195 198 204 201 203 210 204 207 215 197 186 180 175 217 284
166 163 157 156 158 163 167 170 175 181 186 192 193 194 195 197 203 203 203 206 206 210 204 203 207 206 206 205 194 201 206 198 202 207 206 209 217 201 194 183 174 175 218
157 157 156 158 160 160 159 160 164 174 178 176 181 187 194 200 203 197 198 201 207 208 199 205 203 207 206 200 191 197 198 191 199 198 197 205 209 199 193 189 194 188 189
153 156 154 154 148 145 150 155 161 163 167 170 174 178 189 193 184 186 194 198 203 202 201 200 198 201 202 197 194 198 191 191 196 198 190 202 198 199 202 192 200 195 181
144 143 141 133 134 140 147 153 161 170 172 170 164 171 179 172 167 184 197 189 190 199 202 194 190 194 193 190 189 196 191 186 191 195 186 202 205 200 207 205 209 204 198
123 124 123 126 135 139 142 149 160 170 165 157 154 158 159 155 164 181 176 157 157 161 163 173 182 182 183 182 187 191 188 185 188 189 191 199 188 205 209 205 211 224 215
123 120 115 114 118 125 138 144 149 153 146 142 148 154 156 155 162 156 149 145 135 128 129 144 155 156 158 171 175 172 167 167 170 174 182 189 192 200 192 191 195 189 142
116 115 115 114 118 114 116 125 129 141 140 142 150 157 160 145 128 125 129 124 115 112 109 104 104 109 124 143 135 140 151 149 148 142 145 147 142 143 146 154 151 130 107
126 124 122 124 128 126 130 119 119 131 135 142 142 135 128 122 118 114 109 101 95 88 88 85 88 89 96 102 108 121 127 136 138 133 123 104 84 80 84 88 95 114 135
138 134 133 136 136 139 143 140 135 127 127 129 128 125 121 112 108 105 101 98 95 90 85 84 86 86 80 92 96 104 108 106 107 105 100 93 78 80 80 72 64 57 53
142 137 132 129 127 129 134 127 119 120 124 123 120 122 120 113 104 101 97 87 84 86 83 81 82 83 70 80 86 89 92 90 86 86 97 98 84 70 79 77 68 59 45
138 129 124 117 110 114 117 111 109 108 116 124 124 123 125 119 111 105 101 96 93 84 77 77 76 78 63 68 81 92 96 90 79 73 71 78 75 64 74 82 78 63 45
112 109 106 96 100 108 107 101 99 101 106 115 118 114 115 116 112 109 102 95 92 89 84 75 67 69 65 60 69 84 91 89 81 70 62 61 69 64 69 80 81 71 45
108 103 98 91 93 101 103 101 97 97 97 100 102 99 100 105 107 102 96 95 93 91 85 80 69 62 60 59 60 67 82 93 87 75 64 57 65 66 64 67 70 68 67
105 104 100 90 82 87 98 98 96 97 92 91 95 94 91 97 100 99 95 94 99 96 90 85 75 60 52 53 59 65 74 84 88 83 75 70 69 65 61 61 59 58 60
107 105 103 94 81 78 93 101 101 102 98 91 91 92 85 78 82 91 95 92 91 95 93 90 85 69 54 50 56 64 70 76 82 82 82 75 68 62 59 56 58 57 58
104 102 102 96 86 77 81 95 102 104 103 99 95 91 88 80 69 68 73 85 87 94 95 93 90 77 58 46 47 57 68 70 75 75 69 64 61 60 55 51 50 51 56
103 101 102 101 95 87 85 92 102 109 107 103 100 95 92 93 85 74 61 67 56 86 105 101 99 94 77 43 65 82 72 72 76 78 68 62 61 60 55 51 46 42 42
108 104 100 100 97 94 87 84 95 110 113 110 107 106 104 100 101 99 80 56 63 69 76 88 97 80 88 87 79 77 76 74 78 81 76 70 66 65 60 57 48 40 37
Height
1505 1508 1511 1514 1517 1519 1521 1524 1526 1529 1531 1533 1535 1537 1539 1541 1543 1545 1547 1549 1551 1553 1555 1556 1558 1560 1561 1563 1564 1566 1567 1568 1569 1570 1571 1571 1571 1571 1572 1572 1572 1573 1574
1503 1505 1508 1511 1513 1516 1518 1521 1523 1526 1528 1530 1532 1535 1536 1538 1541 1542 1544 1546 1548 1550 1552 1554 1555 1557 1559 1561 1562 1563 1564 1566 1567 1568 1568 1569 1570 1569 1569 1570 1570 1571 1571
1498 1501 1504 1507 1510 1513 1515 1518 1521 1523 1525 1528 1530 1532 1534 1535 1537 1539 1540 1543 1545 1547 1549 1551 1552 1554 1556 1558 1559 1561 1562 1563 1565 1566 1567 1566 1566 1566 1567 1567 1568 1568 1569
1496 1498 1500 1503 1506 1509 1513 1516 1518 1520 1522 1524 1526 1527 1529 1530 1532 1534 1537 1539 1542 1543 1545 1547 1549 1551 1553 1554 1556 1558 1559 1560 1562 1563 1564 1565 1565 1565 1565 1565 1565 1566 1566
1493 1496 1498 1500 1504 1508 1510 1513 1515 1517 1519 1521 1522 1524 1525 1527 1529 1531 1534 1536 1538 1540 1541 1543 1545 1547 1549 1551 1553 1554 1556 1557 1558 1560 1561 1562 1562 1562 1563 1563 1563 1564 1564
1491 1493 1496 1499 1503 1506 1509 1511 1513 1514 1516 1518 1519 1520 1521 1523 1525 1527 1529 1532 1534 1536 1538 1540 1541 1543 1545 1547 1549 1550 1552 1553 1555 1556 1557 1558 1559 1559 1560 1560 1561 1561 1561
1490 1492 1495 1497 1501 1504 1507 1509 1510 1512 1513 1514 1515 1517 1518 1520 1521 1523 1525 1527 1529 1531 1533 1535 1537 1538 1540 1543 1545 1547 1548 1549 1551 1552 1554 1555 1556 1557 1557 1558 1558 1558 1558
1488 1491 1494 1496 1499 1502 1504 1506 1508 1509 1510 1511 1512 1514 1515 1516 1518 1520 1522 1523 1525 1527 1529 1531 1533 1534 1536 1538 1540 1542 1544 1546 1547 1548 1550 1551 1552 1553 1554 1555 1555 1555 1555
1489 1491 1494 1496 1498 1500 1502 1504 1505 1507 1508 1509 1510 1511 1512 1513 1514 1516 1518 1520 1521 1523 1525 1526 1528 1530 1532 1534 1536 1538 1539 1541 1543 1544 1545 1547 1548 1549 1550 1551 1552 1553 1552
1490 1492 1494 1496 1498 1500 1501 1503 1504 1505 1506 1507 1508 1509 1510 1511 1512 1513 1515 1516 1517 1519 1520 1522 1524 1525 1527 1529 1531 1533 1535 1537 1538 1540 1541 1543 1544 1545 1546 1547 1548 1549 1549
1489 1491 1494 1497 1498 1500 1501 1502 1503 1505 1505 1506 1507 1508 1508 1509 1510 1511 1512 1513 1514 1515 1517 1518 1519 1521 1522 1524 1526 1528 1530 1532 1534 1536 1537 1538 1540 1541 1542 1543 1544 1545 1545
1488 1491 1494 1496 1498 1499 1501 1501 1502 1504 1504 1505 1506 1507 1508 1508 1508 1509 1509 1510 1511 1512 1514 1515 1515 1517 1518 1520 1522 1524 1526 1528 1530 1531 1533 1535 1536 1537 1538 1539 1540 1540 1541
1490 1492 1494 1496 1498 1499 1500 1501 1502 1503 1504 1505 1506 1506 1507 1506 1507 1508 1508 1509 1510 1510 1511 1512 1512 1513 1515 1517 1518 1520 1522 1524 1526 1527 1529 1531 1532 1533 1534 1535 1536 1537 1537
1490 1492 1494 1496 1498 1500 1500 1501 1501 1502 1503 1504 1505 1506 1506 1506 1506 1507 1507 1508 1509 1509 1509 1509 1510 1511 1512 1514 1516 1517 1519 1520 1522 1524 1526 1527 1529 1530 1531 1531 1532 1533 1534
1490 1492 1494 1496 1498 1499 1500 1500 1501 1502 1503 1504 1505 1505 1506 1506 1506 1506 1506 1507 1508 1508 1508 1508 1509 1510 1511 1512 1514 1515 1517 1518 1520 1521 1523 1524 1526 1527 1527 1528 1528 1529 1530
1489 1491 1494 1496 1497 1498 1499 1499 1501 1502 1503 1504 1505 1505 1506 1506 1506 1506 1506 1506 1507 1507 1507 1508 1508 1509 1510 1511 1512 1514 1515 1516 1517 1519 1520 1522 1523 1524 1525 1525 1526 1526 1527
1488 1490 1492 1494 1496 1498 1499 1499 1500 1502 1503 1504 1505 1505 1506 1506 1506 1506 1506 1506 1507 1507 1507 1508 1509 1509 1510 1511 1512 1513 1514 1515 1516 1517 1518 1519 1521 1522 1522 1523 1523 1523 1524
1488 1490 1492 1494 1495 1497 1498 1499 1500 1501 1502 1503 1505 1506 1506 1506 1506 1507 1507 1507 1507 1508 1508 1509 1509 1510 1511 1511 1512 1512 1513 1514 1515 1517 1518 1519 1520 1520 1521 1521 1521 1522 1522
1488 1490 1492 1493 1495 1497 1497 1498 1499 1501 1502 1503 1505 1506 1506 1507 1507 1507 1508 1508 1509 1509 1510 1510 1511 1511 1511 1512 1512 1513 1514 1514 1515 1517 1518 1518 1519 1520 1520 1520 1520 1521 1521
1489 1491 1492 1493 1495 1497 1498 1498 1499 1501 1502 1504 1505 1506 1507 1507 1508 1508 1509 1510 1510 1510 1511 1512 1512 1513 1513 1513 1513 1514 1515 1515 1516 1517 1518 1519 1519 1519 1519 1519 1520 1520 1521
1488 1490 1492 1493 1495 1497 1498 1499 1500 1501 1502 1504 1505 1506 1507 1508 1508 1509 1510 1510 1511 1512 1513 1513 1513 1515 1515 1516 1516 1516 1516 1516 1517 1518 1519 1519 1520 1520 1520 1520 1520 1521 1521
1488 1490 1492 1493 1495 1497 1498 1499 1500 1502 1503 1504 1505 1506 1507 1508 1510 1510 1511 1512 1513 1513 1514 1515 1515 1517 1517 1518 1518 1518 1518 1519 1519 1519 1520 1521 1522 1522 1522 1522 1522 1522 1522
1489 1491 1493 1494 1496 1498 1499 1500 1501 1503 1504 1505 1506 1507 1508 1509 1510 1512 1513 1514 1515 1515 1516 1517 1517 1519 1520 1521 1521 1521 1521 1521 1521 1522 1523 1523 1524 1524 1524 1524 1524 1523 1523
1490 1492 1494 1495 1497 1499 1501 1501 1502 1503 1504 1505 1506 1508 1509 1510 1512 1513 1515 1516 1517 1518 1518 1519 1520 1521 1522 1522 1523 1523 1523 1523 1523 1524 1524 1525 1525 1525 1525 1525 1525 1524 1523
1492 1494 1495 1496 1499 1501 1502 1503 1504 1505 1505 1506 1508 1509 1511 1512 1514 1515 1517 1518 1519 1521 1521 1522 1523 1523 1524 1525 1526 1526 1526 1526 1526 1526 1526 1527 1527 1527 1526 1526 1526 1525 1524
1494 1496 1497 1498 1500 1502 1503 1504 1505 1506 1507 1508 1509 1511 1513 1515 1516 1517 1519 1521 1522 1523 1524 1525 1525 1526 1527 1527 1528 1528 1528 1528 1529 1529 1528 1528 1528 1528 1528 1527 1527 1526 1525